VIR209 RKSI-EGLL

Flight info

Callsign VIR209
Flight time N/A
Altitude 38000
Route NOPIK Y697 AGAVO/K0843S0660 A591 IKEKA W4 FZ/K0922S0980 W4 HCH W200 DOVIV/K0913S1040 DCT VYK B215 LEBOM W104 VEXEB W47 IDSOT W48 DKO W66 NUKTI B215 DUBUV/K0913S1100 B215 FKG A368 SARIN/K0907F360 N161 GASBI/N0495F380 N161 LEYLA N644 TETRO M10 SARPI UN37 TBN UM11 CRM UM688 EKSUK UL852 NEGEM T746 ARGES DCT BUDOP DCT PATAK DCT ODNEM/N0482F400 DCT RAPET DCT MASEK DCT TIVUN DCT TORNU DCT BREDA DCT ABNED L980 LOGAN
Aircraft B78X/H-SDE1E2E3FGHIJ2J3J4J5M1RWXY/LB1D1

Departure

Time N/A
Airport Incheon International Airport (RKSI)

Arrival

Time 2026-05-05 10:52
Airport London Heathrow Airport (EGLL)
Time Latitude Longitude Altitude Speed Heading
2026-05-05 10:22 51.83024 2.87694 39971 ft 477 kts 263°
2026-05-05 10:22 51.82270 2.77015 39971 ft 477 kts 263°
2026-05-05 10:23 51.81566 2.66334 39970 ft 478 kts 263°
2026-05-05 10:23 51.80823 2.55666 39972 ft 478 kts 263°
2026-05-05 10:24 51.80452 2.50326 39833 ft 475 kts 263°
2026-05-05 10:24 51.80088 2.45051 39164 ft 471 kts 263°
2026-05-05 10:24 51.79717 2.39776 38479 ft 473 kts 263°
2026-05-05 10:24 51.79340 2.34484 37663 ft 473 kts 262°
2026-05-05 10:25 51.78963 2.29209 36881 ft 472 kts 262°
2026-05-05 10:25 51.78589 2.23970 36127 ft 467 kts 262°
2026-05-05 10:25 51.78293 2.18799 35203 ft 457 kts 264°
2026-05-05 10:25 51.77984 2.13682 34186 ft 465 kts 263°
2026-05-05 10:26 51.77648 2.08532 33417 ft 458 kts 263°
2026-05-05 10:26 51.77348 2.03433 32639 ft 456 kts 263°
2026-05-05 10:26 51.77055 1.98265 31891 ft 463 kts 263°
2026-05-05 10:26 51.76745 1.93106 31158 ft 461 kts 263°
2026-05-05 10:27 51.76424 1.87970 30440 ft 457 kts 263°
2026-05-05 10:27 51.76110 1.82873 29665 ft 453 kts 263°
2026-05-05 10:27 51.75803 1.77837 28838 ft 449 kts 263°
2026-05-05 10:27 51.75494 1.72838 28027 ft 446 kts 262°
2026-05-05 10:28 51.75182 1.67867 27240 ft 443 kts 262°
2026-05-05 10:28 51.74870 1.62943 26466 ft 440 kts 262°
2026-05-05 10:28 51.74559 1.58024 25671 ft 442 kts 262°
2026-05-05 10:28 51.74247 1.53128 24916 ft 447 kts 262°
2026-05-05 10:29 51.73928 1.48135 24163 ft 445 kts 262°
2026-05-05 10:29 51.73609 1.43190 23394 ft 442 kts 262°
2026-05-05 10:29 51.73290 1.38288 22529 ft 438 kts 262°
2026-05-05 10:29 51.72971 1.33410 21689 ft 435 kts 262°
2026-05-05 10:30 51.72653 1.28574 20874 ft 431 kts 262°
2026-05-05 10:30 51.72336 1.23795 20078 ft 427 kts 262°
2026-05-05 10:30 51.72020 1.19053 19335 ft 423 kts 263°
2026-05-05 10:30 51.71705 1.14364 18615 ft 418 kts 263°
2026-05-05 10:31 51.71392 1.09717 17866 ft 414 kts 263°
2026-05-05 10:31 51.71082 1.05151 17318 ft 408 kts 263°
2026-05-05 10:31 51.70771 1.00603 16706 ft 407 kts 263°
2026-05-05 10:31 51.70466 0.96151 16157 ft 402 kts 263°
2026-05-05 10:32 51.70157 0.91683 15993 ft 402 kts 263°
2026-05-05 10:32 51.69844 0.87172 15948 ft 403 kts 263°
2026-05-05 10:32 51.69530 0.82691 15695 ft 402 kts 263°
2026-05-05 10:32 51.69215 0.78204 15209 ft 400 kts 263°
2026-05-05 10:33 51.68912 0.73903 14732 ft 397 kts 263°
2026-05-05 10:33 51.68599 0.69496 14247 ft 394 kts 263°
2026-05-05 10:33 51.68287 0.65126 13770 ft 393 kts 264°
2026-05-05 10:33 51.67974 0.60767 13238 ft 390 kts 264°
2026-05-05 10:34 51.67663 0.56446 12713 ft 387 kts 264°
2026-05-05 10:34 51.67352 0.52161 12195 ft 384 kts 264°
2026-05-05 10:34 51.67043 0.47918 11688 ft 380 kts 264°
2026-05-05 10:34 51.66734 0.43706 11191 ft 377 kts 264°
2026-05-05 10:35 51.66426 0.39527 10697 ft 374 kts 264°
2026-05-05 10:35 51.66120 0.35381 10212 ft 371 kts 264°
2026-05-05 10:35 51.65818 0.31329 9725 ft 367 kts 264°
2026-05-05 10:35 51.65522 0.27376 9212 ft 338 kts 264°
2026-05-05 10:36 51.65255 0.23831 8863 ft 303 kts 264°
2026-05-05 10:36 51.65010 0.20565 8517 ft 289 kts 264°
2026-05-05 10:36 51.64769 0.17356 8251 ft 285 kts 264°
2026-05-05 10:36 51.64559 0.14205 7997 ft 282 kts 265°
2026-05-05 10:37 51.64382 0.11057 7989 ft 284 kts 266°
2026-05-05 10:37 51.64212 0.07901 7987 ft 282 kts 266°
2026-05-05 10:37 51.64044 0.04744 7982 ft 283 kts 266°
2026-05-05 10:37 51.63876 0.01598 7986 ft 283 kts 266°
2026-05-05 10:38 51.63723 -0.01267 7950 ft 265 kts 266°
2026-05-05 10:38 51.63565 -0.04196 7980 ft 261 kts 266°
2026-05-05 10:38 51.63411 -0.07047 7986 ft 258 kts 266°
2026-05-05 10:38 51.63260 -0.09818 8000 ft 249 kts 266°
2026-05-05 10:39 51.63109 -0.12617 8003 ft 246 kts 266°
2026-05-05 10:39 51.62958 -0.15405 8001 ft 250 kts 266°
2026-05-05 10:39 51.62808 -0.18179 8004 ft 251 kts 266°
2026-05-05 10:39 51.62657 -0.20967 7998 ft 249 kts 266°
2026-05-05 10:40 51.62505 -0.23751 8007 ft 249 kts 266°
2026-05-05 10:40 51.62354 -0.26530 8005 ft 250 kts 266°
2026-05-05 10:40 51.62203 -0.29316 8006 ft 250 kts 266°
2026-05-05 10:40 51.62051 -0.32106 8000 ft 250 kts 266°
2026-05-05 10:41 51.61900 -0.34856 7887 ft 243 kts 266°
2026-05-05 10:41 51.61750 -0.37595 7618 ft 247 kts 265°
2026-05-05 10:41 51.61602 -0.40324 7367 ft 245 kts 266°
2026-05-05 10:41 51.61456 -0.43045 7116 ft 244 kts 265°
2026-05-05 10:42 51.61168 -0.48508 7011 ft 246 kts 265°
2026-05-05 10:42 51.61023 -0.51266 6942 ft 251 kts 266°
2026-05-05 10:42 51.60877 -0.54029 6584 ft 245 kts 266°
2026-05-05 10:43 51.60731 -0.56759 6086 ft 245 kts 266°
2026-05-05 10:43 51.60582 -0.59489 5550 ft 245 kts 266°
2026-05-05 10:43 51.60424 -0.62173 5172 ft 235 kts 266°
2026-05-05 10:43 51.60165 -0.64673 4815 ft 227 kts 255°
2026-05-05 10:44 51.59571 -0.66978 4509 ft 214 kts 240°
2026-05-05 10:44 51.58740 -0.68892 4179 ft 211 kts 232°
2026-05-05 10:44 51.57822 -0.70709 3864 ft 209 kts 231°
2026-05-05 10:44 51.56899 -0.72493 3544 ft 207 kts 231°
2026-05-05 10:45 51.55972 -0.74260 3197 ft 206 kts 230°
2026-05-05 10:45 51.55052 -0.75999 3011 ft 203 kts 231°
2026-05-05 10:45 51.54129 -0.77724 3012 ft 204 kts 231°
2026-05-05 10:45 51.53139 -0.79341 3004 ft 202 kts 218°
2026-05-05 10:46 51.51919 -0.80523 2998 ft 199 kts 203°
2026-05-05 10:46 51.50582 -0.81157 3020 ft 202 kts 187°
2026-05-05 10:46 51.49209 -0.81223 3015 ft 201 kts 171°
2026-05-05 10:46 51.47901 -0.80657 2993 ft 196 kts 142°
2026-05-05 10:47 51.47241 -0.78950 3008 ft 174 kts 88°
2026-05-05 10:47 51.47593 -0.77166 3013 ft 170 kts 62°
2026-05-05 10:47 51.47643 -0.75313 2964 ft 173 kts 105°
2026-05-05 10:47 51.47498 -0.73440 2995 ft 168 kts 67°
2026-05-05 10:48 51.47939 -0.71701 2976 ft 173 kts 80°
2026-05-05 10:48 51.47622 -0.69848 2777 ft 181 kts 109°
2026-05-05 10:48 51.47630 -0.67986 2556 ft 166 kts 62°
2026-05-05 10:48 51.47941 -0.66279 2199 ft 167 kts 90°
2026-05-05 10:49 51.47639 -0.64458 1796 ft 161 kts 91°
2026-05-05 10:49 51.47646 -0.62650 1763 ft 159 kts 87°
2026-05-05 10:49 51.47643 -0.60859 1585 ft 158 kts 84°
2026-05-05 10:49 51.47639 -0.59267 1412 ft 158 kts 87°
2026-05-05 10:50 51.47716 -0.57512 1210 ft 150 kts 76°
2026-05-05 10:50 51.47787 -0.55840 1074 ft 152 kts 88°
2026-05-05 10:50 51.47749 -0.54132 824 ft 151 kts 91°
2026-05-05 10:50 51.47709 -0.52960 669 ft 143 kts 86°
2026-05-05 10:51 51.47712 -0.51530 558 ft 150 kts 86°
2026-05-05 10:51 51.47729 -0.49884 300 ft 150 kts 86°
2026-05-05 10:51 51.47740 -0.48277 97 ft 141 kts 88°
2026-05-05 10:51 51.47753 -0.47137 93 ft 70 kts 89°
2026-05-05 10:52 51.47758 -0.46436 98 ft 54 kts 91°
2026-05-05 10:52 51.47700 -0.46144 94 ft 11 kts 137°
2026-05-05 10:52 51.47689 -0.46129 94 ft 3 kts 142°
2026-05-05 10:52 51.47663 -0.46099 94 ft 6 kts 144°
2026-05-05 10:53 51.47646 -0.46080 96 ft 0 kts 147°
2026-05-05 10:53 51.47640 -0.46074 96 ft 2 kts 147°
2026-05-05 10:53 51.47621 -0.46066 96 ft 2 kts 182°
2026-05-05 10:54 51.47606 -0.46091 94 ft 5 kts 238°
2026-05-05 10:54 51.47595 -0.46164 96 ft 9 kts 265°
2026-05-05 10:54 51.47592 -0.46298 93 ft 13 kts 271°
2026-05-05 10:54 51.47593 -0.46442 93 ft 14 kts 270°
2026-05-05 10:55 51.47592 -0.46601 93 ft 15 kts 269°
2026-05-05 10:55 51.47591 -0.46733 93 ft 12 kts 269°
2026-05-05 10:55 51.47583 -0.46870 94 ft 12 kts 255°
2026-05-05 10:55 51.47550 -0.46918 95 ft 5 kts 200°
2026-05-05 10:56 51.47515 -0.46914 95 ft 5 kts 163°
2026-05-05 10:56 51.47503 -0.46869 95 ft 7 kts 108°
2026-05-05 10:56 51.47470 -0.46767 96 ft 11 kts 140°
2026-05-05 10:56 51.47393 -0.46730 94 ft 14 kts 169°
2026-05-05 10:57 51.47292 -0.46728 93 ft 15 kts 180°
2026-05-05 10:57 51.47244 -0.46793 94 ft 10 kts 238°
2026-05-05 10:57 51.47198 -0.46863 96 ft 8 kts 191°
2026-05-05 10:57 51.47118 -0.46867 94 ft 13 kts 177°
2026-05-05 10:58 51.47030 -0.46862 93 ft 12 kts 181°
2026-05-05 10:58 51.46940 -0.46865 93 ft 14 kts 181°
2026-05-05 10:58 51.46854 -0.46843 95 ft 7 kts 139°
2026-05-05 10:58 51.46844 -0.46788 95 ft 6 kts 106°
2026-05-05 10:59 51.46841 -0.46720 94 ft 7 kts 88°
2026-05-05 10:59 51.46844 -0.46614 94 ft 12 kts 89°
2026-05-05 10:59 51.46852 -0.46551 97 ft 2 kts 41°
2026-05-05 10:59 51.46860 -0.46553 96 ft 1 kts
2026-05-05 11:00 51.46896 -0.46561 95 ft 8 kts 352°
2026-05-05 11:00 51.46925 -0.46548 96 ft 3 kts 26°
2026-05-05 11:00 51.46942 -0.46525 95 ft 2 kts 45°
2026-05-05 11:00 51.46952 -0.46499 95 ft 3 kts 56°
2026-05-05 11:01 51.46959 -0.46482 95 ft 2 kts 56°
2026-05-05 11:01 51.46963 -0.46472 94 ft 0 kts 56°